Regional Weather Roundup
Issued by NWS Bismarck, ND

Home | Current Version | Previous Version | Text Only | Print | Product List | Glossary On
Versions: 1 2 3 4 5 6 7 8 9 10 11 12 13 14 15 16 17 18 19 20 21 22 23 24 25 26 27 28 29 30 31 32 33 34 35 36 37 38 39 40 41 42 43 44 45 46 47 48 49 50
000
ASUS43 KBIS 311020
RWRBIS

NWR BROADCAST TEXT
NATIONAL WEATHER SERVICE BISMARCK ND
400 AM CST SAT JAN 31 2015

NOTE: "FAIR" INDICATES FEW OR NO CLOUDS BELOW 12,000 FEET WITH NO
SIGNIFICANT WEATHER AND/OR OBSTRUCTIONS TO VISIBILITY.


CITY           SKY/WX    TMP DP  RH WIND       PRES   REMARKS
WILLISTON      CLOUDY    24  20  84 E13       30.20S WCI  12
MINOT          CLOUDY    18  13  80 N13       30.25R WCI   5
MINOT AFB      DRIZZLE   17  16  98 NE16      30.26R WCI   1
BISMARCK       CLOUDY    23  22  96 NE7       30.24R WCI  15
DICKINSON      FOG       23  21  92 NE14      30.11F VSB 1/4 WCI  11
GARRISON         N/A     20  16  84 NE7       30.23R WCI  11
HETTINGER ARPT FOG       25  23  92 E13G18    30.10S VSB 3/4 WCI  14
JAMESTOWN      CLOUDY    21  16  81 NE13      30.22R WCI   9
BEACH          FOG       25  25 100 E14       30.09F VSB 3/4 WCI  13
CARRINGTON     CLOUDY    18  16  93 MISG      30.26R
CROSBY         CLOUDY    18  16  93 NE13      30.26S WCI   4
HARVEY         CLOUDY    14   9  79 NE21      30.26R WCI  -4
HAZEN          CLOUDY    23  18  80 NE8       30.24S WCI  14
LINTON         CLOUDY    23  23 100 NE9       30.20S FOG     WCI  13
MANDAN         CLOUDY    23  21  93 N7        30.22S FOG     WCI  15
OAKES            N/A     23  23 100 N14       30.21F WCI  11
RUGBY          FAIR       7   0  72 NE23      30.29R WCI -14
STANLEY        CLOUDY    18  18 100 NE8G17    30.22S WCI   7
TIOGA          CLOUDY    18  18 100 E14       30.23F WCI   4
WATFORD CITY   CLOUDY    23  21  93 E10       30.17S WCI  12
$$

CITY           SKY/WX    TMP DP  RH WIND       PRES   REMARKS
GRAND FORKS    PTCLDY     9   0  66 N21G28    30.32R WCI -11
GRAND FORKS AF MOCLDY    10   1  67 N21       30.31R WCI  -9
DEVILS LAKE    MOCLDY     9   3  78 N13G18    30.28R WCI  -7
FARGO          CLOUDY    18  12  77 N15       30.25R WCI   4
CANDO          CLOUDY     7  -2  66 NE21G26   30.31R WCI -13
CAVALIER       PTSUNNY    7   3  85 N12G18    30.35S WCI  -9
GWINNER        CLOUDY    25  23  93 N14       30.23S WCI  13
ROLLA          CLOUDY     5   0  78 NE21      30.29R WCI -16
WALHALLA         N/A      9   7  92 N15G21    30.36R WCI  -8
$$

CITY           SKY/WX    TMP DP  RH WIND       PRES   REMARKS
ABERDEEN       CLOUDY    26  23  88 N15       30.18F WCI  14
MOBRIDGE       CLOUDY    26  24  92 N12       30.14R FOG     WCI  16
BUFFALO          N/A     26  23  88 SE6       29.98F WCI  19
RAPID CITY     CLOUDY    29  22  75 N5        30.04F
GLASGOW        CLOUDY    25  22  88 E24       30.08S FOG     WCI   9
SIDNEY         CLOUDY    25  21  86 NE9       30.18S WCI  15
WOLF POINT     CLOUDY    23  20  88 E18       30.15S WCI   9
GLENDIVE       CLOUDY    27  25  93 E15       30.08F WCI  15
MILES CITY     PTCLDY    23  20  88 NE8       30.00F WCI  14
BAKER          PTCLDY    23  21  92 E8        30.05F WCI  14
$$

CITY           SKY/WX    TMP DP  RH WIND       PRES   REMARKS
BILLINGS       PTCLDY    30  25  81 SW14      29.96F WCI  19
GREAT FALLS    CLOUDY    33  21  61 N14       30.01R
REGINA         LGT SNOW   9   3  78 NE15      30.34R WCI  -8
ESTEVAN        LGT SNOW  12   9  85 NE17      30.28R DRFTSNOWWCI  -5
$$



USA.gov is the U.S. government's official web portal to all federal, state and local government web resources and services.